Flugplatz Straßham (UL)

Hier findest Du alle Informationen zum Flugplatz Straßham (UL).

Informationen für Piloten zum Flugplatz Straßham

Hier findest Du alle relevanten Informationen, die Du als Pilot benötigst, um Straßham anzufliegen.

Flugplatz: Straßham ICAO-Code: UL Flugplatz
Frequenz Turm: 123.425 Mhz GAFOR Gebiet: -
Frequenz Ground: 123.425 Mhz Mogas: nein
Platzrunde: W 2200 ft Landegebühr: -
Platzhöhe: Sunrise: 04:59 Uhr UTC
Pisten: 03/21 - 400 m x 30 m, GRAS Sunset: 17:09 Uhr UTC

Mitglieder, die in Straßham fliegen

Flugwetter am Flugplatz Straßham

Die METAR Information stammen aus EDDM (21.91 km entfernt).

METAR Code:
2020/09/22 18:50
EDDM 221850Z VRB02KT 9999 FEW050TCU 17/15 Q1010 NOSIG

Flugschulen am Flugplatz Straßham

Am Flugplatz Straßham gibt es leider keine Flugschule.

Benachbarte Flugplätze und Flugschulen

Es gibt 17 weitere Flugplätze in einem Umkreis von 50 km um den Flugplatz Straßham.

Jetzt anmelden

Passwort vergessen

Umfrage Archiv

Wären Rettungsgeräte keine Pflicht mehr, würdet Ihr Euer UL trotzdem mit einem ausstatten?

Ja
85.6 %
Nein
14.4 %
Stimmen: 319 | Diskussion
Anzeige: Roland Aircraft
Statistik Alle Mitglieder

Aktuell sind 37 Besucher online.

Anzeige: VFR Sprechfunk Simulator


Anzeige: Pocket FMS